Location: Bukovany
(49.8234°N, 14.6297°E)
Time: 17:18:00
(UTC+00:00)

TIMED - Pass Details

Date: 17 November 2025
Orbit: 582 x 584 km, 74.1° (Epoch: 09 December)

Event Time Altitude Azimuth Distance (km) Brightness Sun altitude
Rises 16:22:37 0° 199° (SSW) 2,797 8.5 -10.8°
Reaches altitude 10° 16:24:49 10° 198° (SSW) 1,902 7.6 -11.1°
Maximum altitude 16:29:03 80° 113° (ESE) 600 4.4 -11.8°
Drops below altitude 10° 16:33:20 10° 26° (NNE) 1,919 6.7 -12.5°
Enters shadow 16:33:54 - 25° (NNE) 2,147 7.0 -12.5°
